STARLINK-32882, 62963

Orbit data source: Space-Track

STARLINK-32882, 62963 is a payload satellite owned by SpaceX/Seattle (US) in LEO that was launched on Tue, 11 Feb 2025 UTC via an FALCON 9 launch vehicle from the Air Force Western Test Range (AFWTR). Payload-class satellites include a variety of spacecraft equipped with specific instruments for various scientific and technological missions. These include communications satellites like Starlink; space stations such as the ISS; scientific satellites like the Hubble; Earth observation satellites from companies like Planet Labs, Umbra, and HawkEye 360; GPS; miniature CubeSats for education and research; and military/defense satellites.

Loading next visibility...
Identifier
62963, 2025-029R
Orbit
LEO
Country
Flag of USUS
Related business
Manufacturer
SpaceX/Seattle
Mission
Operational Commercial Communications
Bus & Motor
STARLINK V2M, Unknown motor
Mass
730 kg wet, ~700 kg dry
Launch date (UTC)
2025-02-11 (1 year ago)
Launch vehicle
FALCON 9
Launch site
Air Force Western Test Range (AFWTR)
Object type
Payload
Rocket body
Debris
Shape & HBR
Box + 2 Pan, 17.7 m
Radar Cross Section
33.884 m², Large (>1 m²)

Expand to show TLE details & history
Last TLE update: 1 day ago

TLE from 1 day ago
0 STARLINK-32882
1 62963U 25029R   26170.82992774  .00018869  00000-0  56846-3 0  9992
2 62963  53.1595 114.6279 0001132 101.2128 258.9002 15.34384424 77006
Epoch: 2026-06-19T19:55Z
TLE epoch observation values (Epoch: 2026-06-19T19:55:05.756Z)
Latitude
-0.00002°
Longitude
-92.19938°
Altitude
463.8 km
Speed
7.636 km/s
True Right ascension
07h 38m 30s
True Declination
0° 00' 00"
Sunlit
Object was in daylight at epoch
Visualization orbit readout
Latitude
Unknown
Longitude
Unknown
Altitude
Unknown
Speed
Unknown
Apparent Right ascension
Unknown
Apparent Declination
Unknown
Sunlit
N/A
Visualization observer readout
Local Sidereal Time
07:15:08
Azimuth
Unknown
Elevation
Unknown
Doppler factor
Unknown
Orbital elements
Apogee altitude
463.781 km
Perigee altitude
462.232 km
Semi-major axis
6,841.144 km
Eccentricity
0.00011
Inclination
53.1595°
RAAN
114.6279°
Arg. of periapsis
101.2128°
True anomaly
258.88747°
Mean anomaly
258.9002°
Eccentric anomaly
258.89384°
Mean motion
3.83575 °/min
Orbital period
93.85 mins
BSTAR
0.00056846
Loading maneuver chart data...
Computing Atmospheric mass density...
Loading historical data...
Loading historical data...
Loading historical data...
Loading historical data...
Loading historical data...
Loading historical data...
Loading historical data...

Documentation

Showing up to 5 results
|